Location: Unspecified
(0.0000°N, 0.0000°E)
Time: 14:02:25
(UTC+00:00)

Hubble Space Telescope - Pass Details

Date: 07 October 2024
Orbit: 503 x 507 km, 28.5° (Epoch: 13 October)

Event Time Altitude Azimuth Distance (km) Brightness Sun altitude
Rises 19:35:29 0° 243° (WSW) 2,594 5.4 -26.8°
Reaches altitude 10° 19:37:43 10° 245° (WSW) 1,708 4.2 -27.4°
Enters shadow 19:40:02 34° 254° (WSW) 851 2.3 -27.9°
